Epoch 2018 June 11.0 TT = JDT 2458280.5 T 2018 May 23.13007 TT MPCW q 1.5566299 (2000.0) P Q z +0.0015592 Peri. 72.61780 -0.30764081 +0.94276858 +/-0.0000044 Node 172.57784 -0.42286504 -0.25656446 e 0.9975729 Incl. 84.69430 +0.85237450 +0.21298378 From 170 observations 2018 Mar. 9-Sept. 11, mean residual 0".6.
m1 = 17.0 + 5 logΔ + 10.0 log r [ ,-31] ( 〜2018年 4月22日) m1 = -81 + 5 logΔ + 480 log r [-31, 31] (2018年 4月22日〜2018年 6月23日) m1 = 17.0 + 5 logΔ + 10.0 log r [ 31, ] (2018年 6月23日〜 )